DECAYED

STARLINK-3091, 49172 (Decayed)

Orbit data source: Space-Track

STARLINK-3091, 49172 was a payload satellite owned by SpaceX/Seattle (US) in LEO that was launched on Tue, 14 Sep 2021 UTC via an FALCON 9 launch vehicle from the Air Force Western Test Range (AFWTR). Payload-class satellites include a variety of spacecraft equipped with specific instruments for various scientific and technological missions. These include communications satellites like Starlink; space stations such as the ISS; scientific satellites like the Hubble; Earth observation satellites from companies like Planet Labs, Umbra, and HawkEye 360; GPS; miniature CubeSats for education and research; and military/defense satellites.

Not visible in the next 10 days
Identifier
49172, 2021-082AU
Orbit
Decayed
Country
Flag of USUS
Related business
Manufacturer
SpaceX/Seattle
Mission
Decayed Commercial Communications
Bus & Motor
STARLINK, Unknown motor
Mass
297 kg wet, ~275 kg dry
Launch date (UTC)
2021-09-14 (5 years ago)
Launch vehicle
FALCON 9
Launch site
Air Force Western Test Range (AFWTR)
Object type
Payload
Rocket body
Debris
Shape & HBR
Box + 1 Pan, 10.1 m
Radar Cross Section
13.562 m², Large (>1 m²)

Expand to show TLE details & history
Last TLE update: 11 months ago

TLE from 11 months ago
0 STARLINK-3091
1 49172U 21082AU  25147.18981869  .11970558  44474-5  18567-3 0  9999
2 49172  69.9932 259.9099 0012951 258.7230 174.8478 16.47529858203954
Epoch: 2025-05-27T04:33Z
TLE epoch observation values (Epoch: 2025-05-27T04:33:20.334Z)
Latitude
64.45195°
Longitude
-4.18635°
Altitude
164.749 km
Speed
7.809 km/s
True Right ascension
20h 36m 33s
True Declination
64° 18' 20"
Sunlit
Object was in daylight at epoch
Visualization orbit readout
Latitude
Unknown
Longitude
Unknown
Altitude
Unknown
Speed
Unknown
Apparent Right ascension
Unknown
Apparent Declination
Unknown
Sunlit
N/A
Visualization observer readout
Local Sidereal Time
11:28:08
Azimuth
Unknown
Elevation
Unknown
Doppler factor
Unknown
Orbital elements
Apogee altitude
152.109 km
Perigee altitude
135.216 km
Semi-major axis
6,521.8 km
Eccentricity
0.0013
Inclination
69.9932°
RAAN
259.9099°
Arg. of periapsis
258.723°
True anomaly
174.86111°
Mean anomaly
174.8478°
Eccentric anomaly
174.85446°
Mean motion
4.1209 °/min
Orbital period
87.36 mins
BSTAR
0.00018567
Loading maneuver chart data...
Computing Atmospheric mass density...
Loading historical data...
Loading historical data...
Loading historical data...
Loading historical data...
Loading historical data...
Loading historical data...
Loading historical data...

Documentation

Showing up to 5 results
|